Regional Weather Roundup
Issued by NWS Sioux Falls, SD

Home | Current Version | Previous Version | Graphics & Text | Print | Product List | Glossary Off
Versions: 1 2 3 4 5 6 7 8 9 10 11 12 13 14 15 16 17 18 19 20 21 22 23 24 25 26 27 28 29 30 31 32 33 34 35 36 37 38 39 40 41 42 43 44 45 46 47 48 49 50

000
ASUS43 KFSD 221010
RWRFSD

WEATHER ROUNDUP FOR SE SOUTH DAKOTA/SW MINNESOTA/NW IOWA
NATIONAL WEATHER SERVICE SIOUX FALLS SD
500 AM CDT TUE AUG 22 2017

NOTE: "FAIR" INDICATES FEW OR NO CLOUDS BELOW 12,000 FEET WITH NO
SIGNIFICANT WEATHER AND OR OBSTRUCTIONS TO VISIBILITY.


SDZ038>040-050-052>070-221100-
SOUTHEAST SOUTH DAKOTA

CITY           SKY/WX    TMP DP  RH WIND       PRES   REMARKS
BROOKINGS      CLEAR     53  50  89 CALM      30.09S
CHAMBERLAIN    CLEAR     52  51  95 SW3       30.16R
HURON          CLEAR     49  47  93 W3        30.12R
MADISON        FAIR      48  48 100 NW8       30.11R
MITCHELL       CLEAR     52  49  89 NW7       30.13R
SIOUX FALLS    CLEAR     57  54  89 N8        30.09R
WINNER         FAIR      55  51  86 SW5       30.17R
YANKTON        CLEAR     56  54  93 NW9       30.11R
$$

MNZ071-072-080-081-089-090-097-098-221100-
SOUTHWEST MINNESOTA

CITY           SKY/WX    TMP DP  RH WIND       PRES   REMARKS
FAIRMONT       CLEAR     59  56  89 NW12      30.00R
JACKSON        CLEAR     55  52  88 NW12      30.02S
LUVERNE        CLEAR     54  48  82 NW5       30.08R
MARSHALL       CLEAR     54  51  90 W9        30.06R
MONTEVIDEO     CLEAR     54  54 100 NW7       30.05R
PIPESTONE      CLEAR     55  52  88 N7        30.08R
REDWOOD FALLS  CLEAR     57  53  86 NW10      30.02R
TRACY          CLEAR     56  54  92 NW10      30.05R
WINDOM         CLEAR     57  54  88 NW10      30.03R
WORTHINGTON    CLEAR     56  52  86 NW12      30.06R
$$

IAZ001>003-012>014-020>022-031-032-NEZ013-014-SDZ071-221100-
NORTHWEST IOWA

CITY           SKY/WX    TMP DP  RH WIND       PRES   REMARKS
CHEROKEE       CLEAR     59  59 100 NW8       30.04R
DENISON        MOCLDY    63  61  94 CALM      30.06R FOG
ESTHERVILLE    CLEAR     57  55  93 NW9       30.00R
ORANGE CITY    CLEAR     61  57  88 N9        30.07R
SHELDON        CLEAR     57  55  94 NW8       30.04R
SIOUX CITY     CLEAR     61  59  93 N12       30.06R
SPENCER        CLEAR     58  55  90 NW9       30.03R
STORM LAKE     CLEAR     61  59  94 N10       30.03R
$$

ABBREVIATIONS USED IN REMARKS
   TC - TEMPERATURE IN CELSIUS
  WCI - WIND CHILL INDEX
   HX - HEAT INDEX
  VSB - VISIBILITY





USA.gov is the U.S. government's official web portal to all federal, state and local government web resources and services.